Regional Weather Roundup
Issued by NWS

Home | Current Version | Previous Version | Graphics & Text | Print | Product List | Glossary On
Versions: 1 2 3 4 5 6 7 8 9 10 11 12 13 14 15 16 17 18 19 20 21 22 23 24 25 26 27 28 29 30 31 32 33 34 35 36 37 38 39 40 41 42 43 44 45 46 47 48 49 50
000
ASUS43 KBIS 250702
RWRND

NORTH DAKOTA REGIONAL WEATHER ROUNDUP
NATIONAL WEATHER SERVICE BISMARCK ND
200 AM CDT TUE JUL 25 2017

NOTE: "FAIR" INDICATES FEW OR NO CLOUDS BELOW 12,000 FEET WITH NO
SIGNIFICANT WEATHER AND/OR OBSTRUCTIONS TO VISIBILITY.


NDZ001>003-009>011-017-250800-
NORTHWEST NORTH DAKOTA

CITY           SKY/WX    TMP DP  RH WIND       PRES   REMARKS
WILLISTON      FAIR      69  48  47 N9        29.90R
MINOT          FAIR      69  55  60 NW3       29.83S
MINOT AFB      FAIR      66  55  69 CALM      29.82F
$$

NDZ018>021-031>035-040>046-250800-
SOUTHWEST NORTH DAKOTA

CITY           SKY/WX    TMP DP  RH WIND       PRES   REMARKS
BISMARCK       FAIR      68  66  93 SE5       29.84R
DICKINSON      FAIR      67  57  70 N8        29.88R
GARRISON         N/A     71  56  58 NE7       29.84S
HETTINGER ARPT FAIR      69  64  84 NE3       29.90S
$$

NDZ004>008-012>016-024-026-027-054-250800-
NORTHEAST NORTH DAKOTA

CITY           SKY/WX    TMP DP  RH WIND       PRES   REMARKS
GRAND FORKS    FAIR      68  65  90 S12       29.85R
GRND FRKS AFB  FAIR      68  64  86 S15       29.85S
DEVILS LAKE    FAIR      70  65  84 S13       29.85R
$$

NDZ022-023-025-028>030-036>039-047>053-250800-
SOUTHEAST NORTH DAKOTA

CITY           SKY/WX    TMP DP  RH WIND       PRES   REMARKS
FARGO          FAIR      70  64  81 S17       29.88S
JAMESTOWN      FAIR      68  64  87 SE12      29.85F
$$





USA.gov is the U.S. government's official web portal to all federal, state and local government web resources and services.